Preview of NWS' New Version of Forecast
This preview is not operational and should not be used for support decisions.

Regional Weather Roundup (RWR)

Issued by National Weather Service (NWS)

                            
000
ASCA42 TJSJ 180110
RWRPR 
PUERTO RICO/U.S. VIRGIN ISLANDS HOURLY WEATHER ROUNDUP
NATIONAL WEATHER SERVICE SAN JUAN PR
900 PM AST WED APR 17 2019

PRZ001>002-007>008-010-180200-
PUERTO RICO
  
CITY           SKY/WX    TMP DP  RH WIND       PRES   REMARKS
SAN JUAN LMM   PTCLDY    79  70  73 E12       30.02R                  
AGUADILLA      PTCLDY    77  70  78 E17       30.01R                  
CEIBA          CLEAR     81  70  69 MISG      30.03R                  
$$

VIZ001>002-180200-
U.S. VIRGIN ISLANDS
  
CITY           SKY/WX    TMP DP  RH WIND       PRES   REMARKS
CHARLOTTE AMA  MOCLDY    79  68  69 E12       30.01R                  
CHRISTIANSTED  CLEAR     77  66  69 NE9       30.01R                  
$$

HOURLY WEATHER ROUNDUP FOR THE NEWS MEDIA
  
CITY           SKY/WX    TMP DP  RH WIND       PRES   REMARKS
ORLANDO        FAIR      73  60  63 SE9       30.06R                  
NEW YORK       MOCLDY    49  38  65 S12       30.21R                  
NEWARK         CLOUDY    52  32  46 S6        30.19R                  
CHICAGO        CLOUDY    74  50  42 S18G26    29.57F                  
HARTFORD       FAIR      43  35  73 S6        30.23R                  
BOSTON         FAIR      51  28  41 S14       30.22R                  
DALLAS         MOCLDY    76  69  79 SE21      29.65F                  
PHILADELPHIA   CLOUDY    53  33  46 E10       30.17R                  
LOS ANGELES    FAIR      65  52  62 W12       30.08F                  
WASHINGTON DC  FAIR      60  43  53 E12       30.07R